Flag for Germany Weather past 2 weeks in Niederkassel, North Rhine-Westphalia, Germany

Now
42 °F

Partly sunny.


Feels Like: 37 °F
Forecast: 32 / 46 °F
Wind: 7 mph from Northwest

Location: Bonn-Hangelar

Current Time: Feb 27, 2015 at 3:11:42 PM

Latest Report: Feb 27, 2015 at 3:00 PM


Visibility: 25 mi

Pressure: 30.06 "Hg

Humidity: 70%

Dew point: 33 °F

Location of NiederkasselLocation

Historic Weather in Niederkassel — Graph

°F

Niederkassel temperature yesterday

Maximum temperature yesterday: 46 °F (at 2:00 PM)
Minimum temperature yesterday: 37 °F (at 3:00 AM)
Average temperature yesterday: 42 °F

Past Weeks' High & Low Weather Summary

 TemperatureHumidityPressure
High50 °F (Feb 13, 1:00 PM)100% (Feb 17, 4:00 AM)30.78 "Hg (Feb 17, 4:00 AM)
Low29 °F (Feb 17, 2:00 AM)55% (Feb 12, 4:00 PM)29.38 "Hg (Feb 21, 3:00 AM)
Average39 °F86%29.98 "Hg
* Reported Feb 12 2:00 PM — Feb 27 2:00 PM, Niederkassel, Weather by CustomWeather, © 2015

Note: Actual official high and low records may vary slightly from our data, if they occured in-between our weather recording intervals... More about our weather records

Advertising

Niederkassel weather history for previous 24 hours

 ConditionsComfort  
Time TempWeatherWind HumidityBarometerVisibility
2:00 PM
Fri, Feb 27
41 °FPartly sunny.7 mph76%30.04 "Hg22 mi
1:00 PM41 °FOvercast.6 mph74%30.03 "Hg14 mi
12:00 PM40 °FOvercast.7 mph84%30.01 "Hg12 mi
11:00 AM40 °FLow clouds.7 mph87%30.00 "Hg9 mi
10:00 AM38 °FLow clouds.6 mph93%29.98 "Hg6 mi
9:00 AM38 °FLow clouds.7 mph93%29.95 "Hg5 mi
8:00 AM38 °FRain. Low clouds.8 mph95%29.93 "Hg5 mi
7:00 AM38 °FLight rain. Low clouds.7 mph95%29.89 "Hg9 mi
6:00 AM37 °FLight rain. Low clouds.8 mph93%29.88 "Hg7 mi
5:00 AM38 °FLight rain. Low clouds.7 mph97%29.84 "Hg6 mi
4:00 AM39 °FLight rain. Low clouds.8 mph97%29.82 "Hg3 mi
3:00 AM40 °FLight rain. Low clouds.10 mph97%29.80 "Hg6 mi
2:00 AM43 °FLight freezing rain. Low clouds.6 mph97%29.78 "Hg2 mi
1:00 AM44 °FLight freezing rain. Low clouds.7 mph95%29.78 "Hg5 mi
12:00 AMN/APassing clouds.101 mphN/AN/A2 mi
11:00 PM
Thu, Feb 26
44 °FLight rain. Low clouds.9 mph92%29.80 "Hg6 mi
10:00 PM43 °FDrizzle. Low clouds.9 mph92%29.81 "Hg3 mi
9:00 PM44 °FOvercast.9 mph89%29.83 "Hg9 mi
8:00 PM44 °FOvercast.8 mph92%29.86 "Hg9 mi
7:00 PM44 °FRain. Overcast.8 mph90%29.88 "Hg7 mi
6:00 PM44 °FRain. Low clouds.8 mph87%29.89 "Hg12 mi
5:00 PM45 °FOvercast.9 mph86%29.91 "Hg12 mi
4:00 PM46 °FLight rain. Overcast.9 mph82%29.93 "Hg16 mi
3:00 PM46 °FOvercast.7 mph79%29.97 "Hg19 mi
Weather by CustomWeather, © 2015

See weather overviewHow to use our weather pages